SJF855 LOWL-EDAH

Flight info

Callsign SJF855
Flight time 1h 3m
Altitude 36000
Route PEROL1W PEROL DCT ADLET DCT DEKOV Y621 GARKI/N0441F280 Y621 LUROS M725 UDAXI DCT
Aircraft A320/M-DGVW/C

Departure

Time 2026-04-17 11:03
Airport Linz-Hörsching Airport (LOWL)

Arrival

Time 2026-04-17 12:06
Airport Heringsdorf Airport (EDAH)
Time Latitude Longitude Altitude Speed Heading
2026-04-17 10:48 48.23800 14.19145 986 ft 0 kts 86°
2026-04-17 10:55 48.23801 14.19113 988 ft 4 kts 106°
2026-04-17 10:55 48.23813 14.19083 993 ft 4 kts 155°
2026-04-17 10:55 48.23828 14.19077 988 ft 1 kts 178°
2026-04-17 10:55 48.23830 14.19077 988 ft 0 kts 178°
2026-04-17 10:58 48.23820 14.19077 993 ft 7 kts 177°
2026-04-17 10:58 48.23772 14.19093 986 ft 6 kts 140°
2026-04-17 10:58 48.23761 14.19148 988 ft 5 kts 95°
2026-04-17 10:59 48.23760 14.19192 988 ft 5 kts 86°
2026-04-17 10:59 48.23762 14.19287 986 ft 13 kts 90°
2026-04-17 10:59 48.23767 14.19424 988 ft 14 kts 84°
2026-04-17 10:59 48.23756 14.19581 994 ft 16 kts 132°
2026-04-17 11:00 48.23655 14.19653 989 ft 16 kts 161°
2026-04-17 11:00 48.23558 14.19710 989 ft 14 kts 158°
2026-04-17 11:00 48.23468 14.19762 988 ft 15 kts 159°
2026-04-17 11:00 48.23371 14.19843 984 ft 16 kts 119°
2026-04-17 11:01 48.23367 14.20019 983 ft 19 kts 87°
2026-04-17 11:01 48.23375 14.20227 982 ft 21 kts 87°
2026-04-17 11:01 48.23367 14.20451 980 ft 23 kts 92°
2026-04-17 11:01 48.23383 14.20620 989 ft 6 kts
2026-04-17 11:02 48.23390 14.20580 988 ft 7 kts 264°
2026-04-17 11:02 48.23369 14.20186 983 ft 75 kts 267°
2026-04-17 11:02 48.23336 14.19075 991 ft 135 kts 266°
2026-04-17 11:02 48.23278 14.17410 1013 ft 180 kts 268°
2026-04-17 11:03 48.23199 14.15501 1497 ft 187 kts 266°
2026-04-17 11:03 48.23121 14.13575 2234 ft 184 kts 267°
2026-04-17 11:03 48.23134 14.11682 3033 ft 179 kts 283°
2026-04-17 11:03 48.23663 14.10093 3829 ft 164 kts 315°
2026-04-17 11:04 48.24616 14.09168 4272 ft 173 kts 346°
2026-04-17 11:04 48.25870 14.09185 4494 ft 194 kts 19°
2026-04-17 11:04 48.27174 14.10039 4725 ft 216 kts 24°
2026-04-17 11:04 48.28599 14.11009 5023 ft 236 kts 24°
2026-04-17 11:05 48.30151 14.12058 5417 ft 256 kts 24°
2026-04-17 11:05 48.31821 14.13178 6046 ft 267 kts 24°
2026-04-17 11:05 48.33529 14.14318 6883 ft 270 kts 24°
2026-04-17 11:05 48.35233 14.15454 7695 ft 273 kts 24°
2026-04-17 11:06 48.36977 14.16616 8514 ft 276 kts 24°
2026-04-17 11:06 48.38743 14.17794 9326 ft 279 kts 24°
2026-04-17 11:06 48.40525 14.18983 10138 ft 282 kts 24°
2026-04-17 11:06 48.42348 14.20211 10653 ft 296 kts 23°
2026-04-17 11:07 48.44064 14.21372 10851 ft 316 kts 23°
2026-04-17 11:07 48.46103 14.22748 11096 ft 337 kts 23°
2026-04-17 11:07 48.48269 14.24206 11683 ft 344 kts 23°
2026-04-17 11:07 48.50470 14.25685 12387 ft 348 kts 22°
2026-04-17 11:08 48.52690 14.27177 13128 ft 351 kts 22°
2026-04-17 11:08 48.54937 14.28650 13841 ft 353 kts 19°
2026-04-17 11:08 48.57311 14.29606 14470 ft 354 kts
2026-04-17 11:08 48.59775 14.29838 15077 ft 356 kts 357°
2026-04-17 11:09 48.62262 14.29739 15693 ft 359 kts 357°
2026-04-17 11:09 48.64766 14.29645 16338 ft 361 kts 357°
2026-04-17 11:09 48.67256 14.29558 16950 ft 364 kts 357°
2026-04-17 11:10 48.72357 14.29391 18154 ft 369 kts 357°
2026-04-17 11:10 48.74937 14.29309 18723 ft 372 kts 357°
2026-04-17 11:10 48.77533 14.29222 19250 ft 375 kts 357°
2026-04-17 11:10 48.80151 14.29132 19792 ft 377 kts 357°
2026-04-17 11:11 48.82781 14.29041 20344 ft 379 kts 357°
2026-04-17 11:11 48.85424 14.28954 20868 ft 381 kts 357°
2026-04-17 11:11 48.88078 14.28868 21407 ft 383 kts 356°
2026-04-17 11:11 48.90747 14.28778 21953 ft 384 kts 356°
2026-04-17 11:12 48.93433 14.28683 22449 ft 386 kts 356°
2026-04-17 11:12 48.96131 14.28590 22930 ft 388 kts 356°
2026-04-17 11:12 48.98844 14.28498 23403 ft 391 kts 356°
2026-04-17 11:12 49.01572 14.28401 23854 ft 393 kts 356°
2026-04-17 11:13 49.04310 14.28303 24224 ft 395 kts 356°
2026-04-17 11:13 49.07062 14.28204 24599 ft 396 kts 356°
2026-04-17 11:13 49.09785 14.28109 24990 ft 397 kts 356°
2026-04-17 11:13 49.12586 14.28011 25391 ft 398 kts 356°
2026-04-17 11:14 49.15320 14.27916 25745 ft 399 kts 356°
2026-04-17 11:14 49.18104 14.27819 26069 ft 401 kts 356°
2026-04-17 11:14 49.20900 14.27719 26413 ft 402 kts 356°
2026-04-17 11:14 49.23700 14.27620 26756 ft 404 kts 356°
2026-04-17 11:15 49.26519 14.27524 27094 ft 405 kts 356°
2026-04-17 11:15 49.29341 14.27428 27424 ft 406 kts 356°
2026-04-17 11:15 49.32173 14.27330 27778 ft 407 kts 356°
2026-04-17 11:15 49.35000 14.27230 28126 ft 407 kts 356°
2026-04-17 11:16 49.37841 14.27127 28451 ft 408 kts 356°
2026-04-17 11:16 49.40682 14.27024 28750 ft 409 kts 356°
2026-04-17 11:16 49.43532 14.26923 29026 ft 410 kts 356°
2026-04-17 11:16 49.46390 14.26825 29299 ft 411 kts 356°
2026-04-17 11:17 49.49257 14.26727 29566 ft 412 kts 356°
2026-04-17 11:17 49.52124 14.26630 29818 ft 413 kts 356°
2026-04-17 11:17 49.54997 14.26532 30188 ft 411 kts 356°
2026-04-17 11:17 49.57821 14.26435 30538 ft 409 kts 355°
2026-04-17 11:18 49.60668 14.26337 30851 ft 408 kts 355°
2026-04-17 11:18 49.63504 14.26238 31135 ft 407 kts 355°
2026-04-17 11:18 49.66337 14.26136 31417 ft 406 kts 355°
2026-04-17 11:18 49.69159 14.26033 31683 ft 406 kts 355°
2026-04-17 11:19 49.71984 14.25927 31930 ft 406 kts 355°
2026-04-17 11:19 49.74805 14.25822 32198 ft 405 kts 355°
2026-04-17 11:19 49.77619 14.25723 32501 ft 405 kts 355°
2026-04-17 11:19 49.80431 14.25625 32799 ft 404 kts 355°
2026-04-17 11:20 49.83237 14.25525 33078 ft 403 kts 355°
2026-04-17 11:20 49.86040 14.25424 33351 ft 402 kts 355°
2026-04-17 11:20 49.88839 14.25326 33625 ft 402 kts 355°
2026-04-17 11:20 49.91606 14.25231 33899 ft 402 kts 355°
2026-04-17 11:21 49.94392 14.25132 34163 ft 401 kts 355°
2026-04-17 11:21 49.97191 14.25029 34398 ft 401 kts 355°
2026-04-17 11:21 49.99973 14.24924 34606 ft 401 kts 355°
2026-04-17 11:21 50.02768 14.24821 34790 ft 402 kts 355°
2026-04-17 11:22 50.05573 14.24720 34988 ft 402 kts 355°
2026-04-17 11:22 50.08373 14.24623 35179 ft 403 kts 355°
2026-04-17 11:22 50.11177 14.24523 35365 ft 403 kts 355°
2026-04-17 11:22 50.13986 14.24420 35542 ft 403 kts 355°
2026-04-17 11:23 50.16796 14.24317 35725 ft 404 kts 355°
2026-04-17 11:23 50.19571 14.24219 35897 ft 404 kts 355°
2026-04-17 11:23 50.21474 14.24151 36013 ft 404 kts 355°
2026-04-17 11:23 50.25202 14.24016 36213 ft 405 kts 355°
2026-04-17 11:24 50.30864 14.23809 36249 ft 407 kts 355°
2026-04-17 11:24 50.35614 14.23643 36251 ft 407 kts 355°
2026-04-17 11:25 50.41249 14.23433 36254 ft 408 kts 355°
2026-04-17 11:25 50.46921 14.23219 36269 ft 408 kts 355°
2026-04-17 11:26 50.52595 14.23011 36259 ft 407 kts 355°
2026-04-17 11:26 50.58266 14.22800 36265 ft 408 kts 355°
2026-04-17 11:27 50.63941 14.22594 36267 ft 407 kts 355°
2026-04-17 11:27 50.69616 14.22400 36268 ft 408 kts 355°
2026-04-17 11:28 50.75285 14.22192 36280 ft 407 kts 355°
2026-04-17 11:28 50.80948 14.21974 36274 ft 407 kts 355°
2026-04-17 11:29 50.86610 14.21757 36264 ft 407 kts 355°
2026-04-17 11:29 50.92243 14.21100 36256 ft 405 kts 349°
2026-04-17 11:30 50.97790 14.19870 36275 ft 405 kts 349°
2026-04-17 11:30 51.03375 14.18653 36276 ft 405 kts 349°
2026-04-17 11:31 51.08971 14.17442 36277 ft 405 kts 349°
2026-04-17 11:31 51.14573 14.16320 36279 ft 406 kts 350°
2026-04-17 11:32 51.20185 14.15239 36297 ft 406 kts 350°
2026-04-17 11:32 51.25792 14.14150 36292 ft 406 kts 350°
2026-04-17 11:33 51.31388 14.13042 36289 ft 405 kts 350°
2026-04-17 11:33 51.36984 14.11931 36280 ft 405 kts 352°
2026-04-17 11:34 51.42647 14.12383 36280 ft 410 kts
2026-04-17 11:34 51.48312 14.13429 36297 ft 410 kts
2026-04-17 11:35 51.53981 14.14467 36284 ft 409 kts
2026-04-17 11:35 51.59636 14.15498 36282 ft 409 kts
2026-04-17 11:36 51.65292 14.16542 36280 ft 409 kts
2026-04-17 11:36 51.70956 14.17595 36292 ft 409 kts
2026-04-17 11:37 51.76615 14.18647 36284 ft 409 kts
2026-04-17 11:37 51.82264 14.18998 36279 ft 404 kts 350°
2026-04-17 11:38 51.87832 14.17846 36279 ft 403 kts 350°
2026-04-17 11:38 51.93375 14.16721 36290 ft 404 kts 350°
2026-04-17 11:39 51.98997 14.15583 36285 ft 404 kts 350°
2026-04-17 11:39 52.04548 14.14445 36283 ft 404 kts 350°
2026-04-17 11:40 52.10141 14.13290 36283 ft 404 kts 350°
2026-04-17 11:40 52.15730 14.12139 36283 ft 405 kts 350°
2026-04-17 11:41 52.21319 14.10979 36296 ft 405 kts 350°
2026-04-17 11:41 52.26916 14.09815 36291 ft 405 kts 350°
2026-04-17 11:42 52.32518 14.08643 36289 ft 406 kts 350°
2026-04-17 11:42 52.38114 14.07468 36287 ft 406 kts 350°
2026-04-17 11:43 52.43715 14.06286 36303 ft 406 kts 350°
2026-04-17 11:43 52.49325 14.05118 36260 ft 407 kts 350°
2026-04-17 11:44 52.52152 14.04526 35314 ft 414 kts 350°
2026-04-17 11:44 52.55026 14.03916 34285 ft 417 kts 350°
2026-04-17 11:44 52.57912 14.03304 33231 ft 416 kts 350°
2026-04-17 11:44 52.60781 14.02700 32084 ft 414 kts 350°
2026-04-17 11:45 52.63596 14.02110 30400 ft 414 kts 350°
2026-04-17 11:45 52.66464 14.01501 28325 ft 417 kts 350°
2026-04-17 11:45 52.69349 14.00883 26372 ft 419 kts 351°
2026-04-17 11:45 52.72243 14.00264 24546 ft 421 kts 351°
2026-04-17 11:46 52.75145 13.99647 22885 ft 418 kts 351°
2026-04-17 11:46 52.78004 13.99045 21333 ft 412 kts 351°
2026-04-17 11:46 52.80829 13.98450 19913 ft 407 kts 351°
2026-04-17 11:46 52.83626 13.97858 18573 ft 402 kts 352°
2026-04-17 11:47 52.86380 13.97274 17129 ft 397 kts 352°
2026-04-17 11:47 52.89104 13.96693 15766 ft 393 kts 352°
2026-04-17 11:47 52.91802 13.96119 14497 ft 389 kts 352°
2026-04-17 11:47 52.94479 13.95577 13169 ft 386 kts 353°
2026-04-17 11:48 52.97133 13.95069 11881 ft 380 kts 353°
2026-04-17 11:48 52.99737 13.94580 10662 ft 374 kts 353°
2026-04-17 11:48 53.02298 13.94099 9358 ft 367 kts 353°
2026-04-17 11:48 53.04816 13.93620 8055 ft 361 kts 353°
2026-04-17 11:49 53.07289 13.93146 6781 ft 354 kts 353°
2026-04-17 11:49 53.09720 13.92677 5484 ft 348 kts 353°
2026-04-17 11:49 53.12045 13.92229 4733 ft 330 kts 353°
2026-04-17 11:49 53.14210 13.91814 4477 ft 300 kts 354°
2026-04-17 11:50 53.16230 13.91425 4343 ft 283 kts 353°
2026-04-17 11:50 53.18124 13.91013 4284 ft 265 kts 349°
2026-04-17 11:50 53.19895 13.90399 4293 ft 258 kts 348°
2026-04-17 11:50 53.21642 13.89786 4294 ft 256 kts 348°
2026-04-17 11:51 53.23386 13.89175 4292 ft 257 kts 348°
2026-04-17 11:51 53.25139 13.88560 4292 ft 257 kts 348°
2026-04-17 11:51 53.26898 13.87942 4292 ft 259 kts 348°
2026-04-17 11:51 53.28654 13.87325 4292 ft 258 kts 348°
2026-04-17 11:52 53.30408 13.86709 4295 ft 257 kts 348°
2026-04-17 11:52 53.32160 13.86093 4294 ft 257 kts 348°
2026-04-17 11:52 53.33911 13.85474 4294 ft 257 kts 348°
2026-04-17 11:52 53.35661 13.84856 4295 ft 258 kts 348°
2026-04-17 11:53 53.37396 13.84244 4294 ft 257 kts 348°
2026-04-17 11:53 53.39149 13.83626 4296 ft 257 kts 348°
2026-04-17 11:53 53.40893 13.83011 4296 ft 256 kts 348°
2026-04-17 11:53 53.42645 13.82391 4297 ft 257 kts 348°
2026-04-17 11:54 53.44400 13.81768 4298 ft 258 kts 348°
2026-04-17 11:54 53.46159 13.81146 4303 ft 258 kts 348°
2026-04-17 11:54 53.47918 13.80526 4305 ft 258 kts 348°
2026-04-17 11:54 53.49671 13.79904 4303 ft 257 kts 348°
2026-04-17 11:55 53.51427 13.79279 4302 ft 258 kts 348°
2026-04-17 11:55 53.53160 13.78663 4303 ft 258 kts 348°
2026-04-17 11:55 53.54924 13.78034 4303 ft 259 kts 348°
2026-04-17 11:55 53.56682 13.77407 4305 ft 258 kts 348°
2026-04-17 11:56 53.58443 13.76778 4308 ft 258 kts 348°
2026-04-17 11:56 53.60198 13.76152 4304 ft 258 kts 348°
2026-04-17 11:56 53.61955 13.75526 4307 ft 258 kts 348°
2026-04-17 11:56 53.63716 13.74900 4306 ft 259 kts 348°
2026-04-17 11:57 53.65476 13.74272 4305 ft 258 kts 348°
2026-04-17 11:57 53.67235 13.73641 4312 ft 257 kts 348°
2026-04-17 11:57 53.68962 13.73020 4311 ft 257 kts 348°
2026-04-17 11:57 53.70724 13.72387 4311 ft 257 kts 348°
2026-04-17 11:58 53.72478 13.71758 4311 ft 258 kts 348°
2026-04-17 11:58 53.74230 13.71132 4312 ft 257 kts 348°
2026-04-17 11:58 53.75992 13.70642 4311 ft 256 kts 357°
2026-04-17 11:58 53.77771 13.70809 4319 ft 256 kts
2026-04-17 11:59 53.79537 13.71304 4317 ft 257 kts
2026-04-17 11:59 53.81287 13.71787 4315 ft 258 kts
2026-04-17 11:59 53.83057 13.72272 4320 ft 257 kts
2026-04-17 11:59 53.84822 13.72750 4316 ft 256 kts
2026-04-17 12:00 53.86588 13.73228 4317 ft 256 kts
2026-04-17 12:00 53.88296 13.73693 4319 ft 240 kts
2026-04-17 12:00 53.89890 13.74129 4320 ft 226 kts
2026-04-17 12:00 53.91437 13.74564 4322 ft 224 kts 12°
2026-04-17 12:01 53.92809 13.75751 4322 ft 224 kts 45°
2026-04-17 12:01 53.93568 13.77955 4325 ft 224 kts 76°
2026-04-17 12:01 53.93514 13.80604 4329 ft 227 kts 104°
2026-04-17 12:01 53.93074 13.83181 4274 ft 228 kts 104°
2026-04-17 12:02 53.92646 13.85794 3881 ft 232 kts 104°
2026-04-17 12:02 53.92222 13.88417 3519 ft 234 kts 104°
2026-04-17 12:02 53.91801 13.91028 3175 ft 220 kts 104°
2026-04-17 12:02 53.91420 13.93422 2781 ft 200 kts 102°
2026-04-17 12:03 53.91092 13.95590 2491 ft 177 kts 103°
2026-04-17 12:03 53.90802 13.97476 2398 ft 154 kts 103°
2026-04-17 12:03 53.90544 13.99185 2102 ft 146 kts 103°
2026-04-17 12:03 53.90283 14.00801 1823 ft 139 kts 103°
2026-04-17 12:04 53.90012 14.02355 1541 ft 136 kts 105°
2026-04-17 12:04 53.89726 14.03875 1253 ft 134 kts 101°
2026-04-17 12:04 53.89473 14.05391 1036 ft 133 kts 103°
2026-04-17 12:04 53.89245 14.06917 833 ft 132 kts 103°
2026-04-17 12:05 53.88997 14.08418 672 ft 136 kts 104°
2026-04-17 12:05 53.88724 14.09945 573 ft 135 kts 105°
2026-04-17 12:05 53.88488 14.11492 331 ft 133 kts 105°
2026-04-17 12:05 53.88254 14.13009 192 ft 134 kts 106°
2026-04-17 12:06 53.88001 14.14469 63 ft 100 kts 104°
2026-04-17 12:06 53.87920 14.14965 74 ft 30 kts 107°
2026-04-17 12:06 53.87852 14.15358 78 ft 36 kts 104°
2026-04-17 12:06 53.87782 14.15790 64 ft 39 kts 105°
2026-04-17 12:07 53.87710 14.16230 66 ft 37 kts 106°
2026-04-17 12:07 53.87643 14.16641 64 ft 35 kts 106°
2026-04-17 12:07 53.87565 14.16752 68 ft 14 kts 205°
2026-04-17 12:07 53.87499 14.16663 73 ft 9 kts 221°
2026-04-17 12:08 53.87474 14.16616 85 ft 6 kts 234°
2026-04-17 12:08 53.87471 14.16483 82 ft 19 kts 287°
2026-04-17 12:08 53.87529 14.16227 83 ft 25 kts 290°
2026-04-17 12:08 53.87573 14.16041 89 ft 26 kts 292°
2026-04-17 12:09 53.87647 14.15738 70 ft 30 kts 292°
2026-04-17 12:09 53.87746 14.15303 71 ft 26 kts 288°
2026-04-17 12:09 53.87767 14.15098 76 ft 27 kts 275°
2026-04-17 12:09 53.87791 14.14651 62 ft 31 kts 275°
2026-04-17 12:10 53.87804 14.14399 63 ft 32 kts 275°
2026-04-17 12:10 53.87899 14.14067 64 ft 32 kts 301°
2026-04-17 12:10 53.87919 14.13963 70 ft 2 kts 244°
2026-04-17 12:10 53.87913 14.13931 69 ft 0 kts 279°